Tracking 28908 objects as of 21-May-2024
HD Live streaming from Space Station
objects crossing your sky now

NSL-1

Track NSL-1 now!
10-day predictions
NSL-1 is classified as:


NORAD ID: 44391
Int'l Code: 2019-038E
Perigee: 422.4 km
Apogee: 425.9 km
Inclination: 97.9 °
Period: 92.9 minutes
Semi major axis: 6795 km
RCS: Unknown
Launch date: July 5, 2019
Source: Israel (ISRA)
Launch site: VOSTOCHNY COSMODROME (VOSTO)

Uplink (MHz):
Downlink (MHz): 401.200
Beacon (MHz):
Mode: FM
Call sign:
Status: Unknown

Your satellite tracking list
Your tracking list is empty




NASA's NSSDC Master Catalog

Two Line Element Set (TLE):
1 44391U 19038E   24141.58645182  .00175123  00000-0  30732-2 0  9999
2 44391  97.8812 147.3100 0002554 337.4025  22.7112 15.49894432267788
Source of the keplerian elements: AFSPC